BEIDOU-2 IGSO-4

Last updated on Sat Oct 25 2025 00:02:49 GMT+0000 (Coordinated Universal Time)

1 37763U 11038A 25295.63865760 -.00000006 00000+0 00000+0 0 9998 2 37763 54.5748 167.8028 0146614 229.5223 315.8266 1.00292059 52264
UTC large
Height (km)
Speed (km/s)
/
Latitude / Longitude
Inclination (degrees)
Orbital Period (minutes)
Azimuth
Elevation
Range (km)
Doppler Factor

Next 0 passes for location: London (51.5072 / 0.1276)

Sorry there are no passes over London.